Regional Weather Roundup
Issued by NWS Newport/Morehead, NC

Current Version | Previous Version | Graphics & Text | Print | Product List | Glossary Off
Versions: 1 2 3 4 5 6 7 8 9 10 11 12 13 14 15 16 17 18 19 20 21 22 23 24 25 26 27 28 29 30 31 32 33 34 35 36 37 38 39 40 41 42 43 44 45 46 47 48 49 50

000
ASUS42 KMHX 311422
RWRMHX
WEATHER ROUNDUP FOR EASTERN NORTH CAROLINA
NATIONAL WEATHER SERVICE NEWPORT/MOREHEAD CITY NC
1000 AM EDT THU JUL 31 2014

NOTE: "FAIR" INDICATES FEW OR NO CLOUDS BELOW 12,000 FEET
WITH NO SIGNIFICANT WEATHER AND/OR OBSTRUCTIONS TO VISIBILITY

NCZ015>017-031-032-045>047-102-103-311500-
NORTH COAST

CITY           SKY/WX    TMP DP  RH WIND       PRES   REMARKS
EDENTON        PTSUNNY   79  65  64 SE5       30.15R
ELIZABETH CITY CLOUDY    78  66  66 SE6       30.14S
KITTY HAWK     PTSUNNY   78  65  64 E5        30.14R
MANTEO         NOT AVBL

$$

NCZ045>047-081-094-103-104-311500-
CENTRAL COAST

CITY           SKY/WX    TMP DP  RH WIND       PRES   REMARKS
FRISCO         CLOUDY    82  64  54 E7        30.13S
SWANQUARTER      N/A     81 N/A N/A SE7G13    30.09S

$$

NCZ095-097-098-100-101-311500-
SOUTHERN COAST

CITY           SKY/WX    TMP DP  RH WIND       PRES   REMARKS
BEAUFORT       CLOUDY    81  68  64 E9        30.12S
CEDAR ISLAND     N/A     82 N/A N/A NE9       30.18S
JACKSONVILLE   CLOUDY    79  68  69 E9        30.11S
NEWPORT        NOT AVBL
PINEY ISLAND   CLOUDY    82  69  64 E9        30.12
WILMINGTON     CLOUDY    82  68  62 E10       30.10R


$$

NCZ011>013-027>030-043-044-078>080-089-090>093-098-311500-
COASTAL PLAIN

CITY           SKY/WX    TMP DP  RH WIND       PRES   REMARKS
AHOSKIE        PTSUNNY   75  66  73 SE6       30.15R
CLINTON        CLOUDY    79  71  76 E3        30.12S
ELIZABETHTOWN  CLOUDY    76  69  79 CALM      30.11S
GOLDSBORO      CLOUDY    74  73  96 E6        30.11S
GREENVILLE     CLOUDY    77  68  73 E3        30.15S
HAVELOCK       CLOUDY    81  68  64 E13       30.13S
KENANSVILLE    CLOUDY    78  67  68 E6        30.13S
KINSTON        CLOUDY    75  68  78 E5        30.14R
NEW BERN       CLOUDY    82  69  64 E7        30.13S
RICHLANDS      CLOUDY    81  66  61 E10       30.12S
ROANOKE RAPIDS NOT AVBL
ROCKY MOUNT    PTSUNNY   75  68  78 E3        30.14R
WASHINGTON     CLOUDY    75  67  74 E5        30.14S
WHITEVILLE     CLOUDY    78  70  75 NE8       30.09S

$$

AMZ130-135-150-152-154-156-158-170-250-252-270-ANZ085-086-088-633-658-670-311500-
MARINE OBSERVATIONS

STATION/POSITION TIME  TEMP    WIND        PRES    WAVE   SWELL
                       AIR SEA DIR/SP/G            HT/PER HT/PER
                 (UTC) (F)     (DEG/KT/KT) (MB)    (FT/S) (FT/S)
CHESAPEAKE LIGHT NOT AVBL
BUOY 44014       1400   76 78  150/  2/  4 1020.4    3/ 7   3/ 7
DUCK             1400   78 77  120/  5/  5 1020.1
2E DUCK          1400                        N/A     2/ 7
OREGON INLET     1400   78 78   50/  5/  7 1020.6
BUOY 44095       1400      78                N/A     3/ 6
20E OREGON INLET NOT AVBL
HATTERAS CG      1400   80 79   80/  4/  8 1020.7
DIAMOND BUOY     1400          VRB  8/ 10  1020.0    3/ 7   3/ 7
CAPE LOOKOUT     1400   80      80/ 13/ 15 1019.7
BEAUFORT LAB     1400   80 81   70/  7/ 11 1019.3
30 SE NEW RIVER  1400   80 81   90/ 14/ 16 1019.5    4/ 7   2/ 7
5 SE WRIGHTSVILL 1400   78 81  100/ 16/ 17   N/A
BUOY 41002       1343   78 80  140/ 12/ 14 1018.3    4/ 6   3/ 6
BUOY 41004       1400   82 83   70/ 16/ 17 1016.3    3/ 6   2/ 8

$$



USA.gov is the U.S. government's official web portal to all federal, state and local government web resources and services.